TimeCDT,TemperatureF,Dew PointF,Humidity,Sea Level PressureIn,VisibilityMPH,Wind Direction,Wind SpeedMPH,Gust SpeedMPH,PrecipitationIn,Events,Conditions,WindDirDegrees,DateUTC
12:56 AM,21.9,17.1,82,30.09,10.0,SE,6.9,-,N/A,,Clear,130,2013-03-22 05:56:00
1:56 AM,19.9,16.0,85,30.09,10.0,ESE,5.8,-,N/A,,Clear,110,2013-03-22 06:56:00
2:56 AM,19.9,16.0,85,30.09,10.0,East,5.8,-,N/A,,Clear,100,2013-03-22 07:56:00
3:56 AM,18.0,15.1,88,30.08,10.0,East,5.8,-,N/A,,Clear,90,2013-03-22 08:56:00
4:56 AM,17.1,14.0,88,30.07,10.0,East,5.8,-,N/A,,Clear,90,2013-03-22 09:56:00
5:56 AM,16.0,12.9,88,30.07,10.0,East,4.6,-,N/A,,Clear,100,2013-03-22 10:56:00
6:56 AM,17.1,14.0,88,30.07,10.0,East,4.6,-,N/A,,Scattered Clouds,90,2013-03-22 11:56:00
7:56 AM,17.1,14.0,88,30.08,10.0,East,4.6,-,N/A,,Mostly Cloudy,90,2013-03-22 12:56:00
8:56 AM,19.0,15.1,85,30.07,10.0,East,6.9,-,N/A,,Overcast,100,2013-03-22 13:56:00
9:56 AM,21.9,16.0,78,30.08,10.0,ESE,6.9,-,N/A,,Overcast,120,2013-03-22 14:56:00
10:56 AM,24.1,16.0,71,30.08,10.0,SSE,6.9,-,N/A,,Overcast,150,2013-03-22 15:56:00
11:56 AM,26.1,17.1,69,30.07,10.0,SE,8.1,-,N/A,,Overcast,140,2013-03-22 16:56:00
12:56 PM,28.0,17.1,63,30.06,10.0,Variable,6.9,-,N/A,,Overcast,0,2013-03-22 17:56:00
1:56 PM,28.9,17.1,61,30.07,10.0,South,5.8,-,N/A,,Overcast,190,2013-03-22 18:56:00
2:56 PM,30.9,17.1,57,30.06,10.0,Calm,Calm,-,N/A,,Overcast,0,2013-03-22 19:56:00
3:56 PM,32.0,19.0,59,30.05,10.0,Variable,3.5,-,N/A,,Overcast,0,2013-03-22 20:56:00
4:56 PM,32.0,19.0,59,30.04,9.0,SE,6.9,-,N/A,,Overcast,130,2013-03-22 21:56:00
5:56 PM,32.0,19.0,59,30.05,10.0,ESE,3.5,-,N/A,,Overcast,110,2013-03-22 22:56:00
6:56 PM,30.9,19.0,61,30.06,10.0,East,3.5,-,N/A,,Overcast,90,2013-03-22 23:56:00
7:56 PM,30.9,19.0,61,30.08,10.0,East,4.6,-,N/A,,Overcast,100,2013-03-23 00:56:00
8:56 PM,30.9,19.9,64,30.09,10.0,East,3.5,-,N/A,,Overcast,90,2013-03-23 01:56:00
9:56 PM,28.0,19.9,72,30.09,10.0,East,5.8,-,N/A,,Mostly Cloudy,100,2013-03-23 02:56:00
10:56 PM,26.6,19.4,74,30.04,10.0,SE,3.5,-,N/A,,Scattered Clouds,130,2013-03-23 03:56:00
11:56 PM,25.0,21.0,85,30.11,10.0,ENE,6.9,-,N/A,,Partly Cloudy,70,2013-03-23 04:56:00